Location: Bottom School (historical)
(37.9078°N, 89.3593°W)
Time: 22:49:09
(UTC+00:00)

Cosmos 1570 Rocket - Pass Details

Date: 08 July 2022
Orbit: 762 x 788 km, 74.1° (Epoch: 07 August)

Event Time Altitude Azimuth Distance (km) Brightness Sun altitude
Exits shadow 07:10:07 46° 99° (E) 1,017 4.6 -27.6°
Drops below altitude 10° 07:15:01 10° 31° (NNE) 2,316 7.4 -27.3°
Sets 07:17:28 0° 25° (NNE) 3,250 8.5 -27.1°
